FENGYUN 1C DEB, 30072

Orbit data source: Space-Track

FENGYUN 1C DEB, 30072 is space debris in SSO originally from a launch on Mon, 10 May 1999 UTC launched from the Taiyaun Space Center, China (TSC). Fengyun 1C debris stems from the Chinese weather satellite Fengyun-1C, which was intentionally destroyed by a Chinese anti-satellite missile in 2007. This event dramatically increased the amount of space debris, with thousands of trackable fragments posing hazards to satellites and human spaceflight. The Fengyun 1C debris cloud has become a focal point in discussions about space sustainability and the need for international regulations to prevent the creation of new debris.

Loading next visibility...
Identifier
30072, 1999-025PZ
Orbit
SSO
Country
Flag of CNCN / PRC
Related business
Manufacturer
Unknown
Mission
Spacecraft
Bus & Motor
Unknown
Mass
Unknown
Launch date (UTC)
1999-05-10 (27 years ago)
Launch vehicle
Unknown
Launch site
Taiyaun Space Center, China (TSC)
Object type
Payload
Rocket body
Debris
Shape & HBR
Unknown shape, 0.1 m
Radar Cross Section
Medium (>0.1 m² and <1 m²)

Expand to show TLE details & history
Last TLE update: 8 hours ago

TLE from 8 hours ago
0 FENGYUN 1C DEB
1 30072U 99025PZ  26166.42304214  .00005454  00000-0  16673-2 0  9991
2 30072  99.0863 330.6609 0057301  91.5555 269.2197 14.41307413998282
Epoch: 2026-06-15T10:09Z
TLE epoch observation values (Epoch: 2026-06-15T10:09:10.840Z)
Latitude
-0.00003°
Longitude
-85.34391°
Altitude
757.904 km
Speed
7.475 km/s
True Right ascension
22h 02m 38s
True Declination
0° 00' 00"
Sunlit
Object was in daylight at epoch
Visualization orbit readout
Latitude
Unknown
Longitude
Unknown
Altitude
Unknown
Speed
Unknown
Apparent Right ascension
Unknown
Apparent Declination
Unknown
Sunlit
N/A
Visualization observer readout
Local Sidereal Time
05:14:39
Azimuth
Unknown
Elevation
Unknown
Doppler factor
Unknown
Orbital elements
Apogee altitude
792.183 km
Perigee altitude
710.478 km
Semi-major axis
7,129.468 km
Eccentricity
0.00573
Inclination
99.0863°
RAAN
330.6609°
Arg. of periapsis
91.5555°
True anomaly
268.56322°
Mean anomaly
269.2197°
Eccentric anomaly
268.89145°
Mean motion
3.60543 °/min
Orbital period
99.85 mins
BSTAR
0.0016673
Loading maneuver chart data...
Computing Atmospheric mass density...
Loading historical data...
Loading historical data...
Loading historical data...
Loading historical data...
Loading historical data...
Loading historical data...
Loading historical data...

Documentation

Showing up to 5 results
|